{"data":{"norad_id":66430,"intl_designator":"2025-259J","name":"STARLINK-35470","alt_names":[],"object_type":"PAYLOAD","status":"ACTIVE","operator":null,"country":"US","launch_date":"2025-11-11","launch_site_code":"AFETR","launch_vehicle":null,"mission":null,"orbit_class":"UNKNOWN","rcs_meters":null,"size_class":null,"mass_kg":null,"dimensions":null,"purposes":["comms"],"wikipedia_slug":null,"has_3d_model":false,"image_url":null,"decayed_at":null,"tle_current":{"epoch":"2026-05-24T20:46:56.796096Z","epoch_age_seconds":97183,"freshness":"FRESH","line1":"1 66430U 25259J   26144.86593514  .00009335  00000+0  34811-3 0  9999","line2":"2 66430  43.0043 203.9542 0001114 291.2732  68.8000 15.27601083 31147","mean_motion":15.27601083,"eccentricity":0.0001114,"inclination_deg":43.0043,"raan_deg":203.9542,"arg_perigee_deg":291.2732,"mean_anomaly_deg":68.8,"bstar":0.00034811,"rev_number":3114,"period_min":94.265447702619,"perigee_km":482.22163758066,"apogee_km":483.75029577764,"semimajor_km":6861.1229666792,"source":"CELESTRAK","updated_at":"2026-05-25T13:38:21.208372Z"}}}